Location: San Martino di Castrozza
(46.2667°N, 11.8000°E)
Time: 03:00:05
(UTC+00:00)

X-37B - Pass Details

Date: 23 April 2021
Orbit: 386 x 389 km, 45.0° (Epoch: 08 May)

Event Time Altitude Azimuth Distance (km) Brightness Sun altitude
Exits shadow 03:13:46 12° 269° (W) 1,286 2.7 -10.0°
Maximum altitude 03:16:36 63° 189° (S) 437 0.6 -9.6°
Drops below altitude 10° 03:19:45 10° 107° (ESE) 1,412 4.1 -9.1°
Sets 03:21:50 0° 104° (ESE) 2,264 5.3 -8.8°
